PUEBLO AVIATION WEATHER

 


 

 

Check out the latest edition of "The Front" - A Regional Newsletter dedicated to Aviation Weather

Aviation Weather Center Standard Briefing 

 


 

 

Colorado Springs Airport(KCOS) Aviation Decision Support Information Page  

 

 

  Terminal Aerodrome Forecasts

Interactive TAF Java Tool

Plotted TAFs and/or Text TAFs

Text TAFs

Pueblo KPUB

000
FTUS45 KPUB 240526
TAFPUB
TAF
KPUB 240526Z 2406/2506 01018G28KT P6SM SCT120 BKN200
     FM240900 34010KT P6SM FEW200
     FM241200 VRB06KT P6SM SKC
     FM241900 14010KT P6SM FEW120
     FM250200 08006KT P6SM FEW120 SCT200=
Colorado Springs KCOS
000
FTUS45 KPUB 240526
TAFCOS
TAF
KCOS 240526Z 2406/2506 36015G25KT P6SM SCT100 BKN200
     FM240800 34009KT P6SM FEW200
     FM241600 15008KT P6SM SKC
     FM242000 18012KT P6SM SCT100
     FM250200 13008KT P6SM FEW120 SCT200=
Alamosa KALS

000
FTUS45 KPUB 240526
TAFALS
TAF
KALS 240526Z 2406/2506 33014KT P6SM FEW200
     FM241000 VRB06KT P6SM SKC
     FM241900 24012G22KT P6SM FEW120 SCT200
     FM250200 22008KT P6SM SCT200=
Denver KDEN

000
FTUS45 KBOU 240645 AAA
TAFDEN
TAF AMD
KDEN 240645Z 2407/2512 VRB06KT P6SM SCT060 BKN100
     FM240900 34006KT P6SM FEW110 SCT220
     FM241000 26008KT P6SM SCT220
     FM241200 21008KT P6SM SCT220
     FM242000 03006KT P6SM FEW100 SCT220
     FM250300 22010KT P6SM FEW140 SCT220=
  

 

Pilot Reports (PIREPs)

Aircraft Icing U.S. NESE
NCSC
NWSW
Sky Conditions U.S. NESE
NCSC
NWSW
Turbulence U.S. NESE
NCSC
NWSW

 

SOARING FORECAST

Experimental product for soaring guidance, Southern Front Range

 

 

 

METARS:

Pueblo


Colorado Springs


Denver

Alamosa


 

 


 

 

 

 

RADAR AND SATELLITE

radar
pueblo radar
 

 

Latest Radar from Pueblo
Click Image to Enlarge

 

IR Satellite
Colorado Infrared Satellite - Click to enlarge
Latest Colorado IR Satellite Image
Click Image to Enlarge
Vis Satellite
Colorado Visible Satellite - Click to enlarge
Latest Colorado Visible Satellite Image
Click Image to Enlarge

 

WATCHES AND WARNINGS

TEXT OF ALL COLORADO WARNINGS

 

Latest Watches And Warnings

 

 

CENTER WEATHER ADVISORIES

 

AIRMETS/SIGMETS

 

 

 


 

FORECAST DISCUSSION: FA

 

 


 

OBSERVED UPPER AIR WINDS

(COURTESY RAP/NCAR)

 

 


 

FORECAST UPPER AIR WINDS

 

 


 

SURFACE OBSERVATIONS

(COURTESY RAP/NCAR)

 

 

 :

 

NOTAMS:

https://www.notams.jcs.mil/geo/radiusForm.html

 

 

 

 

 

 

 

 

 

 

 

 

 

 

 

 


 

 

Constant Pressure Plots From the Storm Prediction Center

Link to the Sky Spotter Program Homepage

 

Other Aviation Links

NWS Aviation Weather Center

ADDS - Aviation Page
FAA Homepage

 


 

 

 

 

 

 

 

 

 

 

 

 

 

 

 

 

 

 

 

 

 

 

 

 

 

 

 

 

 

 

 

 

 

Plots of AIRMETS / SIGMETS

Text AIRMETS / SIGMETS by Center 

Interactive AIRMET/SIGMET Java Tool

 

 



USA.gov is the U.S. government's official web portal to all federal, state and local government web resources and services.